Showing default

BRO-18, 64550

Orbit data source: Space-Track

BRO-18, 64550 is a payload satellite owned by Unseen Labs (FR) in SSO that was launched on Mon, 23 Jun 2025 UTC via an FALCON 9 launch vehicle from the Air Force Western Test Range (AFWTR). Payload-class satellites include a variety of spacecraft equipped with specific instruments for various scientific and technological missions. These include communications satellites like Starlink; space stations such as the ISS; scientific satellites like the Hubble; Earth observation satellites from companies like Planet Labs, Umbra, and HawkEye 360; GPS; miniature CubeSats for education and research; and military/defense satellites.

Loading next visibility...
Identifier
64550, 2025-135Y
Orbit
SSO
Country
Flag of FRFR
Related business
Manufacturer
GOMSpace
Mission
Operational Commercial Sigint
Bus & Motor
CUBESAT 8U, Unknown motor
Mass
15 kg wet, ~15 kg dry
Launch date (UTC)
2025-06-23 (8 months ago)
Launch vehicle
FALCON 9
Launch site
Air Force Western Test Range (AFWTR)
Object type
Payload
Rocket body
Debris
Shape & HBR
Box, 0.2 m
Radar Cross Section
0.100 m², Medium (>0.1 m² and < 1m²)

Expand to show TLE details & history
Last TLE update: 6 hours ago

TLE from 6 hours ago
0 BRO-18
1 64550U 25135Y   26046.31256897  .00004884  00000-0  22527-3 0  9990
2 64550  97.4495 162.5110 0000688  38.9097 321.2187 15.20712742 36345
Epoch: 2026-02-15T07:30Z
TLE epoch observation values (Epoch: 2026-02-15T07:30:05.959Z)
Latitude
-0.00007°
Longitude
-95.33689°
Altitude
506.41 km
Speed
7.611 km/s
True Right ascension
10h 50m 02s
True Declination
0° 00' 00"
Sunlit
Object was in full shadow at epoch
Visualization orbit readout
Latitude
Unknown
Longitude
Unknown
Altitude
Unknown
Speed
Unknown
Apparent Right ascension
Unknown
Apparent Declination
Unknown
Sunlit
N/A
Visualization observer readout
Local Sidereal Time
16:31:21
Azimuth
Unknown
Elevation
Unknown
Doppler factor
Unknown
Orbital elements
Apogee altitude
501.129 km
Perigee altitude
500.183 km
Semi-major axis
6,878.793 km
Eccentricity
0.00007
Inclination
97.4495°
RAAN
162.511°
Arg. of periapsis
38.9097°
True anomaly
321.21376°
Mean anomaly
321.2187°
Eccentric anomaly
321.21623°
Mean motion
3.8043 °/min
Orbital period
94.63 mins
BSTAR
0.00022527
Loading maneuver chart data...
Computing Atmospheric mass density...
Loading historical data...
Loading historical data...
Loading historical data...
Loading historical data...
Loading historical data...
Loading historical data...
Loading historical data...

Documentation

Showing up to 5 results
|